Find GOES 19

NORAD ID: 60133 Int'l Des: 2024-119 Owner: NOAA Country: US operational
HEOCIRCULARGSOGEO

Aktuelle Ansicht

3D-Globus wird geladen...

Über GOES 19

Beschreibung wird geladen...

Nächste Überflüge

Passes for default location (London). Set your location on the main map for personalized predictions.

Höhenverlauf

Loading altitude history...

Zweizeiliger Elementsatz

1 60133U 24119A 26151.48632470 -.00000236 00000-0 00000+0 0 9990
2 60133 0.0377 126.7864 0000596 352.8756 229.2095 1.00273092 6797
Epoch: 31. Mai 2026 • Age: 7 hours

Aktueller Status

Höhe 35783.5 km
Geschwindigkeit 3.07 km/s
Subsatellitenpunkt 0.01°N, 75.2°W
Startdatum 25. Juni 2024
Alter 1.9 years
Typ weather

Technische Details

Klassifizierung Payload
Masse 5000.00 kg
Trockenmasse 2925.00 kg
Gesamtmasse 5000.00 kg
Länge 6.10 m
Durchmesser 3.90 m
Spannweite 12.00 m
Form Box + panel + boom
Hersteller LMCSS
Bus-Typ A2100
Phasenstatus In Orbit
Besitzer/Staat NOAA/US

Most Searched